Year,Month,Day,Hour,Minute,Value (Times are PST for windgust in km/hr)
2019,07,27,00,00,17.70
2019,07,27,00,01,16.10
2019,07,27,00,02,17.70
2019,07,27,00,03,16.10
2019,07,27,00,04,14.50
2019,07,27,00,05,14.50
2019,07,27,00,06,12.90
2019,07,27,00,07,16.10
2019,07,27,00,08,16.10
2019,07,27,00,09,19.30
2019,07,27,00,10,14.50
2019,07,27,00,11,19.30
2019,07,27,00,12,17.70
2019,07,27,00,13,27.40
2019,07,27,00,14,16.10
2019,07,27,00,15,12.90
2019,07,27,00,16,16.10
2019,07,27,00,17,16.10
2019,07,27,00,18,4.80
2019,07,27,00,19,6.40
2019,07,27,00,20,4.80
2019,07,27,00,21,3.20
2019,07,27,00,22,6.40
2019,07,27,00,23,19.30
2019,07,27,00,24,9.60
2019,07,27,00,25,20.90
2019,07,27,00,26,12.90
2019,07,27,00,27,14.50
2019,07,27,00,28,16.10
2019,07,27,00,29,16.10
2019,07,27,00,30,16.10
2019,07,27,00,31,11.30
2019,07,27,00,32,14.50
2019,07,27,00,33,11.30
2019,07,27,00,34,17.70
2019,07,27,00,35,12.90
2019,07,27,00,36,16.10
2019,07,27,00,37,3.20
2019,07,27,00,38,11.30
2019,07,27,00,39,9.60
2019,07,27,00,40,12.90
2019,07,27,00,41,8.10
2019,07,27,00,42,11.30
2019,07,27,00,43,11.30
2019,07,27,00,44,9.60
2019,07,27,00,45,16.10
2019,07,27,00,46,6.40
2019,07,27,00,47,11.30
2019,07,27,00,48,19.30
2019,07,27,00,49,11.30
2019,07,27,00,50,6.40
2019,07,27,00,51,9.60
2019,07,27,00,52,4.80
2019,07,27,00,53,8.10
2019,07,27,00,54,11.30
2019,07,27,00,55,8.10
2019,07,27,00,56,6.40
2019,07,27,00,57,14.50
2019,07,27,00,58,16.10
2019,07,27,00,59,14.50
2019,07,27,01,00,9.60
2019,07,27,01,01,6.40
2019,07,27,01,02,9.60
2019,07,27,01,03,16.10
2019,07,27,01,04,16.10
2019,07,27,01,05,11.30
2019,07,27,01,06,14.50
2019,07,27,01,07,14.50
2019,07,27,01,08,8.10
2019,07,27,01,09,12.90
2019,07,27,01,10,12.90
2019,07,27,01,11,11.30
2019,07,27,01,12,9.60
2019,07,27,01,13,4.80
2019,07,27,01,14,12.90
2019,07,27,01,15,11.30
2019,07,27,01,16,17.70
2019,07,27,01,17,11.30
2019,07,27,01,18,16.10
2019,07,27,01,19,14.50
2019,07,27,01,20,12.90
2019,07,27,01,21,12.90
2019,07,27,01,22,20.90
2019,07,27,01,23,20.90
2019,07,27,01,24,17.70
2019,07,27,01,25,11.30
2019,07,27,01,26,16.10
2019,07,27,01,27,17.70
2019,07,27,01,28,16.10
2019,07,27,01,29,17.70
2019,07,27,01,30,16.10
2019,07,27,01,31,11.30
2019,07,27,01,32,4.80
2019,07,27,01,33,14.50
2019,07,27,01,34,14.50
2019,07,27,01,35,8.10
2019,07,27,01,36,16.10
2019,07,27,01,37,19.30
2019,07,27,01,38,16.10
2019,07,27,01,39,12.90
2019,07,27,01,40,11.30
2019,07,27,01,41,17.70
2019,07,27,01,42,12.90
2019,07,27,01,43,14.50
2019,07,27,01,44,12.90
2019,07,27,01,45,6.40
2019,07,27,01,46,9.60
2019,07,27,01,47,8.10
2019,07,27,01,48,8.10
2019,07,27,01,49,11.30
2019,07,27,01,50,12.90
2019,07,27,01,51,14.50
2019,07,27,01,52,17.70
2019,07,27,01,53,11.30
2019,07,27,01,54,11.30
2019,07,27,01,55,12.90
2019,07,27,01,56,17.70
2019,07,27,01,57,14.50
2019,07,27,01,58,17.70
2019,07,27,01,59,16.10
2019,07,27,02,00,19.30
2019,07,27,02,01,9.60
2019,07,27,02,02,14.50
2019,07,27,02,03,11.30
2019,07,27,02,04,17.70
2019,07,27,02,05,12.90
2019,07,27,02,06,11.30
2019,07,27,02,07,27.40
2019,07,27,02,08,22.50
2019,07,27,02,09,16.10
2019,07,27,02,10,14.50
2019,07,27,02,11,20.90
2019,07,27,02,12,24.20
2019,07,27,02,13,29.00
2019,07,27,02,14,27.40
2019,07,27,02,15,29.00
2019,07,27,02,16,22.50
2019,07,27,02,17,25.70
2019,07,27,02,18,22.50
2019,07,27,02,19,16.10
2019,07,27,02,20,32.20
2019,07,27,02,21,25.70
2019,07,27,02,22,27.40
2019,07,27,02,23,27.40
2019,07,27,02,24,29.00
2019,07,27,02,25,22.50
2019,07,27,02,26,32.20
2019,07,27,02,27,24.20
2019,07,27,02,28,29.00
2019,07,27,02,29,17.70
2019,07,27,02,30,29.00
2019,07,27,02,31,25.70
2019,07,27,02,32,22.50
2019,07,27,02,33,25.70
2019,07,27,02,34,29.00
2019,07,27,02,35,27.40
2019,07,27,02,36,27.40
2019,07,27,02,37,19.30
2019,07,27,02,38,25.70
2019,07,27,02,39,22.50
2019,07,27,02,40,25.70
2019,07,27,02,41,17.70
2019,07,27,02,42,20.90
2019,07,27,02,43,17.70
2019,07,27,02,44,16.10
2019,07,27,02,45,16.10
2019,07,27,02,46,16.10
2019,07,27,02,47,20.90
2019,07,27,02,48,22.50
2019,07,27,02,49,17.70
2019,07,27,02,50,19.30
2019,07,27,02,51,29.00
2019,07,27,02,52,24.20
2019,07,27,02,53,20.90
2019,07,27,02,54,25.70
2019,07,27,02,55,19.30
2019,07,27,02,56,19.30
2019,07,27,02,57,22.50
2019,07,27,02,58,20.90
2019,07,27,02,59,22.50
2019,07,27,03,00,14.50
2019,07,27,03,01,16.10
2019,07,27,03,02,16.10
2019,07,27,03,03,16.10
2019,07,27,03,04,16.10
2019,07,27,03,05,19.30
2019,07,27,03,06,19.30
2019,07,27,03,07,11.30
2019,07,27,03,08,14.50
2019,07,27,03,09,14.50
2019,07,27,03,10,12.90
2019,07,27,03,11,11.30
2019,07,27,03,12,14.50
2019,07,27,03,13,9.60
2019,07,27,03,14,12.90
2019,07,27,03,15,12.90
2019,07,27,03,16,12.90
2019,07,27,03,17,12.90
2019,07,27,03,18,16.10
2019,07,27,03,19,14.50
2019,07,27,03,20,14.50
2019,07,27,03,21,9.60
2019,07,27,03,22,12.90
2019,07,27,03,23,11.30
2019,07,27,03,24,12.90
2019,07,27,03,25,9.60
2019,07,27,03,26,8.10
2019,07,27,03,27,14.50
2019,07,27,03,28,14.50
2019,07,27,03,29,12.90
2019,07,27,03,30,12.90
2019,07,27,03,31,14.50
2019,07,27,03,32,8.10
2019,07,27,03,33,11.30
2019,07,27,03,34,11.30
2019,07,27,03,35,12.90
2019,07,27,03,36,19.30
2019,07,27,03,37,12.90
2019,07,27,03,38,11.30
2019,07,27,03,39,14.50
2019,07,27,03,40,8.10
2019,07,27,03,41,16.10
2019,07,27,03,42,14.50
2019,07,27,03,43,12.90
2019,07,27,03,44,9.60
2019,07,27,03,45,11.30
2019,07,27,03,46,16.10
2019,07,27,03,47,14.50
2019,07,27,03,48,12.90
2019,07,27,03,49,14.50
2019,07,27,03,50,16.10
2019,07,27,03,51,14.50
2019,07,27,03,52,14.50
2019,07,27,03,53,12.90
2019,07,27,03,54,14.50
2019,07,27,03,55,12.90
2019,07,27,03,56,11.30
2019,07,27,03,57,14.50
2019,07,27,03,58,11.30
2019,07,27,03,59,12.90
2019,07,27,04,00,17.70
2019,07,27,04,01,16.10
2019,07,27,04,02,14.50
2019,07,27,04,03,11.30
2019,07,27,04,04,9.60
2019,07,27,04,05,16.10
2019,07,27,04,06,12.90
2019,07,27,04,07,16.10
2019,07,27,04,08,12.90
2019,07,27,04,09,14.50
2019,07,27,04,10,14.50
2019,07,27,04,11,14.50
2019,07,27,04,12,12.90
2019,07,27,04,13,16.10
2019,07,27,04,14,14.50
2019,07,27,04,15,12.90
2019,07,27,04,16,6.40
2019,07,27,04,17,11.30
2019,07,27,04,18,14.50
2019,07,27,04,19,14.50
2019,07,27,04,20,14.50
2019,07,27,04,21,12.90
2019,07,27,04,22,14.50
2019,07,27,04,23,14.50
2019,07,27,04,24,9.60
2019,07,27,04,25,12.90
2019,07,27,04,26,14.50
2019,07,27,04,27,12.90
2019,07,27,04,28,16.10
2019,07,27,04,29,19.30
2019,07,27,04,30,11.30
2019,07,27,04,31,9.60
2019,07,27,04,32,11.30
2019,07,27,04,33,16.10
2019,07,27,04,34,14.50
2019,07,27,04,35,14.50
2019,07,27,04,36,19.30
2019,07,27,04,37,14.50
2019,07,27,04,38,12.90
2019,07,27,04,39,11.30
2019,07,27,04,40,14.50
2019,07,27,04,41,16.10
2019,07,27,04,42,14.50
2019,07,27,04,43,14.50
2019,07,27,04,44,16.10
2019,07,27,04,45,14.50
2019,07,27,04,46,14.50
2019,07,27,04,47,16.10
2019,07,27,04,48,14.50
2019,07,27,04,49,14.50
2019,07,27,04,50,17.70
2019,07,27,04,51,17.70
2019,07,27,04,52,17.70
2019,07,27,04,53,14.50
2019,07,27,04,54,14.50
2019,07,27,04,55,14.50
2019,07,27,04,56,11.30
2019,07,27,04,57,12.90
2019,07,27,04,58,12.90
2019,07,27,04,59,12.90
2019,07,27,05,00,12.90
2019,07,27,05,01,11.30
2019,07,27,05,02,11.30
2019,07,27,05,03,14.50
2019,07,27,05,04,11.30
2019,07,27,05,05,11.30
2019,07,27,05,06,11.30
2019,07,27,05,07,11.30
2019,07,27,05,08,11.30
2019,07,27,05,09,6.40
2019,07,27,05,10,12.90
2019,07,27,05,11,12.90
2019,07,27,05,12,12.90
2019,07,27,05,13,11.30
2019,07,27,05,14,12.90
2019,07,27,05,15,9.60
2019,07,27,05,16,12.90
2019,07,27,05,17,12.90
2019,07,27,05,18,11.30
2019,07,27,05,19,12.90
2019,07,27,05,20,11.30
2019,07,27,05,21,11.30
2019,07,27,05,22,9.60
2019,07,27,05,23,9.60
2019,07,27,05,24,9.60
2019,07,27,05,25,11.30
2019,07,27,05,26,9.60
2019,07,27,05,27,9.60
2019,07,27,05,28,9.60
2019,07,27,05,29,14.50
2019,07,27,05,30,9.60
2019,07,27,05,31,11.30
2019,07,27,05,32,11.30
2019,07,27,05,33,14.50
2019,07,27,05,34,8.10
2019,07,27,05,35,11.30
2019,07,27,05,36,11.30
2019,07,27,05,37,8.10
2019,07,27,05,38,6.40
2019,07,27,05,39,8.10
2019,07,27,05,40,6.40
2019,07,27,05,41,4.80
2019,07,27,05,42,6.40
2019,07,27,05,43,8.10
2019,07,27,05,44,11.30
2019,07,27,05,45,9.60
2019,07,27,05,46,8.10
2019,07,27,05,47,9.60
2019,07,27,05,48,8.10
2019,07,27,05,49,4.80
2019,07,27,05,50,8.10
2019,07,27,05,51,9.60
2019,07,27,05,52,4.80
2019,07,27,05,53,11.30
2019,07,27,05,54,9.60
2019,07,27,05,55,6.40
2019,07,27,05,56,12.90
2019,07,27,05,57,11.30
2019,07,27,05,58,9.60
2019,07,27,05,59,11.30
2019,07,27,06,00,12.90
2019,07,27,06,01,11.30
2019,07,27,06,02,17.70
2019,07,27,06,03,16.10
2019,07,27,06,04,14.50
2019,07,27,06,05,11.30
2019,07,27,06,06,11.30
2019,07,27,06,07,14.50
2019,07,27,06,08,11.30
2019,07,27,06,09,11.30
2019,07,27,06,10,14.50
2019,07,27,06,11,17.70
2019,07,27,06,12,16.10
2019,07,27,06,13,9.60
2019,07,27,06,14,14.50
2019,07,27,06,15,14.50
2019,07,27,06,16,16.10
2019,07,27,06,17,16.10
2019,07,27,06,18,14.50
2019,07,27,06,19,16.10
2019,07,27,06,20,17.70
2019,07,27,06,21,17.70
2019,07,27,06,22,24.20
2019,07,27,06,23,25.70
2019,07,27,06,24,16.10
2019,07,27,06,25,24.20
2019,07,27,06,26,20.90
2019,07,27,06,27,17.70
2019,07,27,06,28,14.50
2019,07,27,06,29,14.50
2019,07,27,06,30,24.20
2019,07,27,06,31,16.10
2019,07,27,06,32,14.50
2019,07,27,06,33,25.70
2019,07,27,06,34,25.70
2019,07,27,06,35,16.10
2019,07,27,06,36,22.50
2019,07,27,06,37,25.70
2019,07,27,06,38,16.10
2019,07,27,06,39,17.70
2019,07,27,06,40,16.10
2019,07,27,06,41,14.50
2019,07,27,06,42,19.30
2019,07,27,06,43,17.70
2019,07,27,06,44,17.70
2019,07,27,06,45,14.50
2019,07,27,06,46,17.70
2019,07,27,06,47,19.30
2019,07,27,06,48,16.10
2019,07,27,06,49,17.70
2019,07,27,06,50,17.70
2019,07,27,06,51,11.30
2019,07,27,06,52,6.40
2019,07,27,06,53,14.50
2019,07,27,06,54,12.90
2019,07,27,06,55,16.10
2019,07,27,06,56,14.50
2019,07,27,06,57,8.10
2019,07,27,06,58,12.90
2019,07,27,06,59,11.30
2019,07,27,07,00,14.50
2019,07,27,07,01,11.30
2019,07,27,07,02,9.60
2019,07,27,07,03,12.90
2019,07,27,07,04,12.90
2019,07,27,07,05,11.30
2019,07,27,07,06,14.50
2019,07,27,07,07,8.10
2019,07,27,07,08,12.90
2019,07,27,07,09,12.90
2019,07,27,07,10,14.50
2019,07,27,07,11,14.50
2019,07,27,07,12,17.70
2019,07,27,07,13,16.10
2019,07,27,07,14,16.10
2019,07,27,07,15,16.10
2019,07,27,07,16,14.50
2019,07,27,07,17,17.70
2019,07,27,07,18,16.10
2019,07,27,07,19,19.30
2019,07,27,07,20,19.30
2019,07,27,07,21,16.10
2019,07,27,07,22,19.30
2019,07,27,07,23,20.90
2019,07,27,07,24,14.50
2019,07,27,07,25,14.50
2019,07,27,07,26,14.50
2019,07,27,07,27,14.50
2019,07,27,07,28,16.10
2019,07,27,07,29,14.50
2019,07,27,07,30,19.30
2019,07,27,07,31,17.70
2019,07,27,07,32,11.30
2019,07,27,07,33,20.90
2019,07,27,07,34,20.90
2019,07,27,07,35,19.30
2019,07,27,07,36,20.90
2019,07,27,07,37,24.20
2019,07,27,07,38,20.90
2019,07,27,07,39,19.30
2019,07,27,07,40,14.50
2019,07,27,07,41,19.30
2019,07,27,07,42,24.20
2019,07,27,07,43,19.30
2019,07,27,07,44,16.10
2019,07,27,07,45,12.90
2019,07,27,07,46,17.70
2019,07,27,07,47,19.30
2019,07,27,07,48,14.50
2019,07,27,07,49,17.70
2019,07,27,07,50,20.90
2019,07,27,07,51,17.70
2019,07,27,07,52,19.30
2019,07,27,07,53,25.70
2019,07,27,07,54,24.20
2019,07,27,07,55,16.10
2019,07,27,07,56,17.70
2019,07,27,07,57,20.90
2019,07,27,07,58,19.30
2019,07,27,07,59,14.50
2019,07,27,08,00,14.50
2019,07,27,08,01,25.70
2019,07,27,08,02,17.70
2019,07,27,08,03,24.20
2019,07,27,08,04,25.70
2019,07,27,08,05,19.30
2019,07,27,08,06,22.50
2019,07,27,08,07,27.40
2019,07,27,08,08,19.30
2019,07,27,08,09,24.20
2019,07,27,08,10,17.70
2019,07,27,08,11,24.20
2019,07,27,08,12,30.60
2019,07,27,08,13,24.20
2019,07,27,08,14,25.70
2019,07,27,08,15,19.30
2019,07,27,08,16,16.10
2019,07,27,08,17,16.10
2019,07,27,08,18,30.60
2019,07,27,08,19,25.70
2019,07,27,08,20,17.70
2019,07,27,08,21,14.50
2019,07,27,08,22,16.10
2019,07,27,08,23,12.90
2019,07,27,08,24,14.50
2019,07,27,08,25,17.70
2019,07,27,08,26,17.70
2019,07,27,08,27,19.30
2019,07,27,08,28,19.30
2019,07,27,08,29,17.70
2019,07,27,08,30,16.10
2019,07,27,08,31,16.10
2019,07,27,08,32,12.90
2019,07,27,08,33,12.90
2019,07,27,08,34,19.30
2019,07,27,08,35,22.50
2019,07,27,08,36,25.70
2019,07,27,08,37,17.70
2019,07,27,08,38,20.90
2019,07,27,08,39,14.50
2019,07,27,08,40,17.70
2019,07,27,08,41,19.30
2019,07,27,08,42,20.90
2019,07,27,08,43,20.90
2019,07,27,08,44,19.30
2019,07,27,08,45,22.50
2019,07,27,08,46,25.70
2019,07,27,08,47,19.30
2019,07,27,08,48,19.30
2019,07,27,08,49,25.70
2019,07,27,08,50,16.10
2019,07,27,08,51,19.30
2019,07,27,08,52,19.30
2019,07,27,08,53,19.30
2019,07,27,08,54,22.50
2019,07,27,08,55,17.70
2019,07,27,08,56,24.20
2019,07,27,08,57,27.40
2019,07,27,08,58,27.40
2019,07,27,08,59,24.20
2019,07,27,09,00,25.70
2019,07,27,09,01,19.30
2019,07,27,09,02,25.70
2019,07,27,09,03,24.20
2019,07,27,09,04,25.70
2019,07,27,09,05,24.20
2019,07,27,09,06,22.50
2019,07,27,09,07,24.20
2019,07,27,09,08,17.70
2019,07,27,09,09,22.50
2019,07,27,09,10,25.70
2019,07,27,09,11,25.70
2019,07,27,09,12,20.90
2019,07,27,09,13,25.70
2019,07,27,09,14,17.70
2019,07,27,09,15,22.50
2019,07,27,09,16,22.50
2019,07,27,09,17,14.50
2019,07,27,09,18,22.50
2019,07,27,09,19,25.70
2019,07,27,09,20,19.30
2019,07,27,09,21,27.40
2019,07,27,09,22,24.20
2019,07,27,09,23,25.70
2019,07,27,09,24,19.30
2019,07,27,09,25,22.50
2019,07,27,09,26,20.90
2019,07,27,09,27,19.30
2019,07,27,09,28,29.00
2019,07,27,09,29,29.00
2019,07,27,09,30,22.50
2019,07,27,09,31,25.70
2019,07,27,09,32,29.00
2019,07,27,09,33,24.20
2019,07,27,09,34,25.70
2019,07,27,09,35,27.40
2019,07,27,09,36,22.50
2019,07,27,09,37,24.20
2019,07,27,09,38,25.70
2019,07,27,09,39,25.70
2019,07,27,09,40,19.30
2019,07,27,09,41,16.10
2019,07,27,09,42,20.90
2019,07,27,09,43,17.70
2019,07,27,09,44,16.10
2019,07,27,09,45,20.90
2019,07,27,09,46,32.20
2019,07,27,09,47,27.40
2019,07,27,09,48,19.30
2019,07,27,09,49,14.50
2019,07,27,09,50,20.90
2019,07,27,09,51,24.20
2019,07,27,09,52,19.30
2019,07,27,09,53,25.70
2019,07,27,09,54,17.70
2019,07,27,09,55,25.70
2019,07,27,09,56,27.40
2019,07,27,09,57,27.40
2019,07,27,09,58,20.90
2019,07,27,09,59,24.20
2019,07,27,10,00,22.50
2019,07,27,10,01,25.70
2019,07,27,10,02,22.50
2019,07,27,10,03,24.20
2019,07,27,10,04,32.20
2019,07,27,10,05,25.70
2019,07,27,10,06,30.60
2019,07,27,10,07,29.00
2019,07,27,10,08,20.90
2019,07,27,10,09,20.90
2019,07,27,10,10,9.60
2019,07,27,10,11,27.40
2019,07,27,10,12,20.90
2019,07,27,10,13,24.20
2019,07,27,10,14,24.20
2019,07,27,10,15,24.20
2019,07,27,10,16,24.20
2019,07,27,10,17,22.50
2019,07,27,10,18,20.90
2019,07,27,10,19,22.50
2019,07,27,10,20,27.40
2019,07,27,10,21,25.70
2019,07,27,10,22,22.50
2019,07,27,10,23,25.70
2019,07,27,10,24,27.40
2019,07,27,10,25,16.10
2019,07,27,10,26,29.00
2019,07,27,10,27,22.50
2019,07,27,10,28,25.70
2019,07,27,10,29,25.70
2019,07,27,10,30,17.70
2019,07,27,10,31,24.20
2019,07,27,10,32,24.20
2019,07,27,10,33,30.60
2019,07,27,10,34,32.20
2019,07,27,10,35,27.40
2019,07,27,10,36,17.70
2019,07,27,10,37,19.30
2019,07,27,10,38,12.90
2019,07,27,10,39,20.90
2019,07,27,10,40,17.70
2019,07,27,10,41,22.50
2019,07,27,10,42,33.80
2019,07,27,10,43,27.40
2019,07,27,10,44,20.90
2019,07,27,10,45,30.60
2019,07,27,10,46,25.70
2019,07,27,10,47,25.70
2019,07,27,10,48,25.70
2019,07,27,10,49,27.40
2019,07,27,10,50,30.60
2019,07,27,10,51,29.00
2019,07,27,10,52,24.20
2019,07,27,10,53,27.40
2019,07,27,10,54,24.20
2019,07,27,10,55,19.30
2019,07,27,10,56,22.50
2019,07,27,10,57,12.90
2019,07,27,10,58,22.50
2019,07,27,10,59,16.10
2019,07,27,11,00,24.20
2019,07,27,11,01,20.90
2019,07,27,11,02,24.20
2019,07,27,11,03,22.50
2019,07,27,11,04,16.10
2019,07,27,11,05,14.50
2019,07,27,11,06,30.60
2019,07,27,11,07,22.50
2019,07,27,11,08,25.70
2019,07,27,11,09,29.00
2019,07,27,11,10,27.40
2019,07,27,11,11,24.20
2019,07,27,11,12,20.90
2019,07,27,11,13,20.90
2019,07,27,11,14,24.20
2019,07,27,11,15,25.70
2019,07,27,11,16,19.30
2019,07,27,11,17,25.70
2019,07,27,11,18,19.30
2019,07,27,11,19,27.40
2019,07,27,11,20,22.50
2019,07,27,11,21,25.70
2019,07,27,11,22,22.50
2019,07,27,11,23,22.50
2019,07,27,11,24,27.40
2019,07,27,11,25,22.50
2019,07,27,11,26,20.90
2019,07,27,11,27,17.70
2019,07,27,11,28,22.50
2019,07,27,11,29,22.50
2019,07,27,11,30,22.50
2019,07,27,11,31,22.50
2019,07,27,11,32,24.20
2019,07,27,11,33,22.50
2019,07,27,11,34,24.20
2019,07,27,11,35,25.70
2019,07,27,11,36,17.70
2019,07,27,11,37,30.60
2019,07,27,11,38,30.60
2019,07,27,11,39,27.40
2019,07,27,11,40,20.90
2019,07,27,11,41,27.40
2019,07,27,11,42,25.70
2019,07,27,11,43,25.70
2019,07,27,11,44,20.90
2019,07,27,11,45,29.00
2019,07,27,11,46,32.20
2019,07,27,11,47,25.70
2019,07,27,11,48,20.90
2019,07,27,11,49,25.70
2019,07,27,11,50,25.70
2019,07,27,11,51,32.20
2019,07,27,11,52,32.20
2019,07,27,11,53,27.40
2019,07,27,11,54,24.20
2019,07,27,11,55,27.40
2019,07,27,11,56,27.40
2019,07,27,11,57,30.60
2019,07,27,11,58,32.20
2019,07,27,11,59,35.40
2019,07,27,12,00,25.70
2019,07,27,12,01,27.40
2019,07,27,12,02,27.40
2019,07,27,12,03,22.50
2019,07,27,12,04,20.90
2019,07,27,12,05,25.70
2019,07,27,12,06,32.20
2019,07,27,12,07,29.00
2019,07,27,12,08,24.20
2019,07,27,12,09,25.70
2019,07,27,12,10,25.70
2019,07,27,12,11,25.70
2019,07,27,12,12,27.40
2019,07,27,12,13,24.20
2019,07,27,12,14,24.20
2019,07,27,12,15,29.00
2019,07,27,12,16,25.70
2019,07,27,12,17,25.70
2019,07,27,12,18,22.50
2019,07,27,12,19,12.90
2019,07,27,12,20,29.00
2019,07,27,12,21,30.60
2019,07,27,12,22,29.00
2019,07,27,12,23,24.20
2019,07,27,12,24,19.30
2019,07,27,12,25,22.50
2019,07,27,12,26,29.00
2019,07,27,12,27,20.90
2019,07,27,12,28,27.40
2019,07,27,12,29,24.20
2019,07,27,12,30,25.70
2019,07,27,12,31,27.40
2019,07,27,12,32,29.00
2019,07,27,12,33,22.50
2019,07,27,12,34,32.20
2019,07,27,12,35,33.80
2019,07,27,12,36,30.60
2019,07,27,12,37,27.40
2019,07,27,12,38,24.20
2019,07,27,12,39,27.40
2019,07,27,12,40,22.50
2019,07,27,12,41,22.50
2019,07,27,12,42,27.40
2019,07,27,12,43,17.70
2019,07,27,12,44,22.50
2019,07,27,12,45,29.00
2019,07,27,12,46,24.20
2019,07,27,12,47,25.70
2019,07,27,12,48,27.40
2019,07,27,12,49,27.40
2019,07,27,12,50,35.40
2019,07,27,12,51,24.20
2019,07,27,12,52,27.40
2019,07,27,12,53,24.20
2019,07,27,12,54,20.90
2019,07,27,12,55,29.00
2019,07,27,12,56,32.20
2019,07,27,12,57,29.00
2019,07,27,12,58,25.70
2019,07,27,12,59,29.00
2019,07,27,13,00,27.40
2019,07,27,13,01,30.60
2019,07,27,13,02,25.70
2019,07,27,13,03,22.50
2019,07,27,13,04,22.50
2019,07,27,13,05,24.20
2019,07,27,13,06,27.40
2019,07,27,13,07,24.20
2019,07,27,13,08,22.50
2019,07,27,13,09,25.70
2019,07,27,13,10,25.70
2019,07,27,13,11,29.00
2019,07,27,13,12,32.20
2019,07,27,13,13,30.60
2019,07,27,13,14,27.40
2019,07,27,13,15,24.20
2019,07,27,13,16,25.70
2019,07,27,13,17,27.40
2019,07,27,13,18,29.00
2019,07,27,13,19,24.20
2019,07,27,13,20,22.50
2019,07,27,13,21,24.20
2019,07,27,13,22,22.50
2019,07,27,13,23,20.90
2019,07,27,13,24,16.10
2019,07,27,13,25,20.90
2019,07,27,13,26,29.00
2019,07,27,13,27,25.70
2019,07,27,13,28,32.20
2019,07,27,13,29,29.00
2019,07,27,13,30,32.20
2019,07,27,13,31,30.60
2019,07,27,13,32,27.40
2019,07,27,13,33,27.40
2019,07,27,13,34,27.40
2019,07,27,13,35,27.40
2019,07,27,13,36,29.00
2019,07,27,13,37,24.20
2019,07,27,13,38,24.20
2019,07,27,13,39,24.20
2019,07,27,13,40,30.60
2019,07,27,13,41,32.20
2019,07,27,13,42,25.70
2019,07,27,13,43,22.50
2019,07,27,13,44,25.70
2019,07,27,13,45,24.20
2019,07,27,13,46,24.20
2019,07,27,13,47,30.60
2019,07,27,13,48,33.80
2019,07,27,13,49,30.60
2019,07,27,13,50,20.90
2019,07,27,13,51,27.40
2019,07,27,13,52,35.40
2019,07,27,13,53,22.50
2019,07,27,13,54,27.40
2019,07,27,13,55,27.40
2019,07,27,13,56,33.80
2019,07,27,13,57,19.30
2019,07,27,13,58,22.50
2019,07,27,13,59,25.70
2019,07,27,14,00,29.00
2019,07,27,14,01,25.70
2019,07,27,14,02,24.20
2019,07,27,14,03,33.80
2019,07,27,14,04,33.80
2019,07,27,14,05,24.20
2019,07,27,14,06,27.40
2019,07,27,14,07,35.40
2019,07,27,14,08,19.30
2019,07,27,14,09,25.70
2019,07,27,14,10,27.40
2019,07,27,14,11,20.90
2019,07,27,14,12,20.90
2019,07,27,14,13,29.00
2019,07,27,14,14,24.20
2019,07,27,14,15,22.50
2019,07,27,14,16,24.20
2019,07,27,14,17,19.30
2019,07,27,14,18,22.50
2019,07,27,14,19,20.90
2019,07,27,14,20,25.70
2019,07,27,14,21,30.60
2019,07,27,14,22,24.20
2019,07,27,14,23,25.70
2019,07,27,14,24,33.80
2019,07,27,14,25,22.50
2019,07,27,14,26,30.60
2019,07,27,14,27,30.60
2019,07,27,14,28,22.50
2019,07,27,14,29,33.80
2019,07,27,14,30,38.60
2019,07,27,14,31,29.00
2019,07,27,14,32,17.70
2019,07,27,14,33,30.60
2019,07,27,14,34,22.50
2019,07,27,14,35,27.40
2019,07,27,14,36,24.20
2019,07,27,14,37,19.30
2019,07,27,14,38,27.40
2019,07,27,14,39,32.20
2019,07,27,14,40,27.40
2019,07,27,14,41,29.00
2019,07,27,14,42,33.80
2019,07,27,14,43,29.00
2019,07,27,14,44,27.40
2019,07,27,14,45,22.50
2019,07,27,14,46,30.60
2019,07,27,14,47,30.60
2019,07,27,14,48,35.40
2019,07,27,14,49,37.00
2019,07,27,14,50,24.20
2019,07,27,14,51,25.70
2019,07,27,14,52,24.20
2019,07,27,14,53,25.70
2019,07,27,14,54,22.50
2019,07,27,14,55,19.30
2019,07,27,14,56,25.70
2019,07,27,14,57,25.70
2019,07,27,14,58,32.20
2019,07,27,14,59,25.70
2019,07,27,15,00,22.50
2019,07,27,15,01,27.40
2019,07,27,15,02,32.20
2019,07,27,15,03,24.20
2019,07,27,15,04,20.90
2019,07,27,15,05,32.20
2019,07,27,15,06,25.70
2019,07,27,15,07,24.20
2019,07,27,15,08,24.20
2019,07,27,15,09,35.40
2019,07,27,15,10,37.00
2019,07,27,15,11,25.70
2019,07,27,15,12,30.60
2019,07,27,15,13,25.70
2019,07,27,15,14,29.00
2019,07,27,15,15,30.60
2019,07,27,15,16,25.70
2019,07,27,15,17,27.40
2019,07,27,15,18,17.70
2019,07,27,15,19,27.40
2019,07,27,15,20,24.20
2019,07,27,15,21,29.00
2019,07,27,15,22,24.20
2019,07,27,15,23,22.50
2019,07,27,15,24,38.60
2019,07,27,15,25,29.00
2019,07,27,15,26,25.70
2019,07,27,15,27,27.40
2019,07,27,15,28,20.90
2019,07,27,15,29,19.30
2019,07,27,15,30,19.30
2019,07,27,15,31,27.40
2019,07,27,15,32,19.30
2019,07,27,15,33,24.20
2019,07,27,15,34,14.50
2019,07,27,15,35,20.90
2019,07,27,15,36,19.30
2019,07,27,15,37,24.20
2019,07,27,15,38,29.00
2019,07,27,15,39,24.20
2019,07,27,15,40,20.90
2019,07,27,15,41,32.20
2019,07,27,15,42,24.20
2019,07,27,15,43,29.00
2019,07,27,15,44,29.00
2019,07,27,15,45,20.90
2019,07,27,15,46,24.20
2019,07,27,15,47,20.90
2019,07,27,15,48,35.40
2019,07,27,15,49,29.00
2019,07,27,15,50,27.40
2019,07,27,15,51,20.90
2019,07,27,15,52,24.20
2019,07,27,15,53,24.20
2019,07,27,15,54,29.00
2019,07,27,15,55,17.70
2019,07,27,15,56,20.90
2019,07,27,15,57,19.30
2019,07,27,15,58,27.40
2019,07,27,15,59,24.20
2019,07,27,16,00,22.50
2019,07,27,16,01,24.20
2019,07,27,16,02,22.50
2019,07,27,16,03,24.20
2019,07,27,16,04,24.20
2019,07,27,16,05,22.50
2019,07,27,16,06,29.00
2019,07,27,16,07,22.50
2019,07,27,16,08,12.90
2019,07,27,16,09,24.20
2019,07,27,16,10,16.10
2019,07,27,16,11,17.70
2019,07,27,16,12,17.70
2019,07,27,16,13,19.30
2019,07,27,16,14,25.70
2019,07,27,16,15,22.50
2019,07,27,16,16,20.90
2019,07,27,16,17,24.20
2019,07,27,16,18,22.50
2019,07,27,16,19,17.70
2019,07,27,16,20,20.90
2019,07,27,16,21,22.50
2019,07,27,16,22,22.50
2019,07,27,16,23,25.70
2019,07,27,16,24,22.50
2019,07,27,16,25,19.30
2019,07,27,16,26,17.70
2019,07,27,16,27,14.50
2019,07,27,16,28,12.90
2019,07,27,16,29,19.30
2019,07,27,16,30,22.50
2019,07,27,16,31,14.50
2019,07,27,16,32,17.70
2019,07,27,16,33,20.90
2019,07,27,16,34,17.70
2019,07,27,16,35,17.70
2019,07,27,16,36,11.30
2019,07,27,16,37,22.50
2019,07,27,16,38,24.20
2019,07,27,16,39,17.70
2019,07,27,16,40,16.10
2019,07,27,16,41,17.70
2019,07,27,16,42,20.90
2019,07,27,16,43,20.90
2019,07,27,16,44,16.10
2019,07,27,16,45,20.90
2019,07,27,16,46,16.10
2019,07,27,16,47,17.70
2019,07,27,16,48,19.30
2019,07,27,16,49,22.50
2019,07,27,16,50,19.30
2019,07,27,16,51,19.30
2019,07,27,16,52,29.00
2019,07,27,16,53,17.70
2019,07,27,16,54,19.30
2019,07,27,16,55,19.30
2019,07,27,16,56,17.70
2019,07,27,16,57,24.20
2019,07,27,16,58,19.30
2019,07,27,16,59,11.30
2019,07,27,17,00,14.50
2019,07,27,17,01,19.30
2019,07,27,17,02,19.30
2019,07,27,17,03,16.10
2019,07,27,17,04,20.90
2019,07,27,17,05,24.20
2019,07,27,17,06,20.90
2019,07,27,17,07,14.50
2019,07,27,17,08,22.50
2019,07,27,17,09,20.90
2019,07,27,17,10,25.70
2019,07,27,17,11,20.90
2019,07,27,17,12,22.50
2019,07,27,17,13,22.50
2019,07,27,17,14,16.10
2019,07,27,17,15,14.50
2019,07,27,17,16,17.70
2019,07,27,17,17,20.90
2019,07,27,17,18,9.60
2019,07,27,17,19,16.10
2019,07,27,17,20,16.10
2019,07,27,17,21,24.20
2019,07,27,17,22,25.70